This is the latest recevied weather packets stored in our database for station/object KC5DAQ-27. If no packets are shown the sender has not sent any weather packets the latest 1 day(s).
| Time | Temp. | Humidity | Pressure | Rain* | Wind** | Luminosity | Snow |
|---|---|---|---|---|---|---|---|
| 1778046952 | 24.44° C | 93% | 1000.5 hPa | 0 mm | 3.13 m/s, 172° | 0 W/m² | - |
| 1778046891 | 25° C | 93% | 1000.5 hPa | 0 mm | 3.13 m/s, 188° | 0 W/m² | - |
| 1778046830 | 25° C | 93% | 1000.5 hPa | 0 mm | 2.68 m/s, 144° | 0 W/m² | - |
| 1778046772 | 25° C | 93% | 1000.6 hPa | 0 mm | 2.68 m/s, 190° | 0 W/m² | - |
| 1778046710 | 25° C | 93% | 1000.6 hPa | 0 mm | 2.68 m/s, 169° | 0 W/m² | - |
| 1778046652 | 25° C | 93% | 1000.6 hPa | 0 mm | 2.68 m/s, 172° | 0 W/m² | - |
| 1778046591 | 25° C | 93% | 1000.6 hPa | 0 mm | 3.13 m/s, 168° | 0 W/m² | - |
| 1778046530 | 25° C | 93% | 1000.6 hPa | 0 mm | 2.68 m/s, 173° | 0 W/m² | - |
| 1778046471 | 25° C | 93% | 1000.6 hPa | 0 mm | 2.68 m/s, 178° | 0 W/m² | - |
| 1778046410 | 25° C | 93% | 1000.6 hPa | 0 mm | 3.13 m/s, 161° | 0 W/m² | - |
| 1778046352 | 25° C | 93% | 1000.6 hPa | 0 mm | 2.68 m/s, 176° | 0 W/m² | - |
| 1778046290 | 25° C | 92% | 1000.6 hPa | 0 mm | 2.68 m/s, 169° | 0 W/m² | - |
| 1778046231 | 25° C | 92% | 1000.6 hPa | 0 mm | 3.13 m/s, 172° | 0 W/m² | - |
| 1778046170 | 25° C | 92% | 1000.5 hPa | 0 mm | 3.13 m/s, 161° | 0 W/m² | - |
| 1778046111 | 25° C | 92% | 1000.5 hPa | 0 mm | 3.58 m/s, 186° | 0 W/m² | - |
| 1778046050 | 25° C | 92% | 1000.6 hPa | 0 mm | 4.02 m/s, 164° | 0 W/m² | - |
| 1778045990 | 25° C | 92% | 1000.6 hPa | 0 mm | 4.02 m/s, 214° | 0 W/m² | - |
| 1778045932 | 25° C | 92% | 1000.6 hPa | 0 mm | 3.13 m/s, 209° | 0 W/m² | - |
| 1778045871 | 25° C | 92% | 1000.5 hPa | 0 mm | 2.68 m/s, 154° | 0 W/m² | - |
| 1778045810 | 25° C | 92% | 1000.6 hPa | 0 mm | 3.13 m/s, 152° | 0 W/m² | - |
| 1778045751 | 25° C | 92% | 1000.5 hPa | 0 mm | 3.13 m/s, 175° | 0 W/m² | - |
| 1778045691 | 25° C | 92% | 1000.6 hPa | 0 mm | 2.68 m/s, 193° | 0 W/m² | - |
| 1778045630 | 25° C | 92% | 1000.6 hPa | 0 mm | 2.68 m/s, 173° | 0 W/m² | - |
| 1778045570 | 25° C | 92% | 1000.6 hPa | 0 mm | 2.24 m/s, 193° | 0 W/m² | - |
| 1778045522 | 25° C | 92% | 1000.6 hPa | 0 mm | 3.13 m/s, 180° | 0 W/m² | - |
* Rain latest hour (hover to see other rain measurements)
** Current wind speed in m/s (hover to see current wind gust speed)